Other Public Products
Issued by NWS Charleston, SC

Current Version | Previous Version | Graphics & Text | Print | Product List | Glossary On
Versions: 1 2 3 4 5 6 7 8 9 10 11 12 13 14 15 16 17 18 19 20 21 22 23 24 25 26 27 28 29 30 31 32 33 34 35 36 37 38 39 40 41 42 43 44 45 46 47 48 49 50
000 FPUS82 KCHS 260627 OPUCHS TEST...KCHS/KSAV Gateway Observations...TEST National Weather Service Charleston SC 200 AM EDT SUN MAR 26 2017 NOTE: "fair" indicates few or no clouds below 12,000 feet with no significant weather and/or obstructions to visibility. SCZ050-WAZ558-NCZ071-TXZ119-213-PAZ071-DCZ001-FLZ074-172-MI076- NYZ176-178-MAZ016-IL014-TNZ027-NJZ106-GAZ044-MD014-260700- ...Gateway Observations for Charleston International... CITY SKY/WX TMP DP RH WIND PRES REMARKS Chas Airport MOCLDY 62 58 86 SE9 30.20F 6HR MIN TEMP: 57; 6HR MAX TEMP: 65; Seattle CLOUDY 46 39 76 SE9 30.04F 6HR MIN TEMP: 45; 6HR MAX TEMP: 50; Charlotte PTCLDY 60 52 74 S10 30.19F 6HR MIN TEMP: 60; 6HR MAX TEMP: 69; Dallas DFW CLEAR 58 47 66 SE5 29.89F 6HR MIN TEMP: 57; 6HR MAX TEMP: 73; Dallas Love CLEAR 59 46 62 SE7 29.91F 6HR MIN TEMP: 58; 6HR MAX TEMP: 72; Philladelphia CLOUDY 45 38 76 E15G22 30.35S 6HR MIN TEMP: 44; 6HR MAX TEMP: 50; Wash National CLOUDY 55 46 71 E15 30.25R 6HR MIN TEMP: 55; 6HR MAX TEMP: 72; Baltimore MOCLDY 48 43 82 NE14 30.28R 6HR MIN TEMP: 48; 6HR MAX TEMP: 70; Miami LGT RAIN 71 65 81 SE6 30.09F 6HR MIN TEMP: 69; 6HR MAX TEMP: 72; 6HR PCP: 0.02; Detroit CLOUDY 40 36 86 E12 30.12F WCI 33 6HR MIN TEMP: 40; 6HR MAX TEMP: 44; Newark CLOUDY 43 33 68 NE7 30.41R 6HR MIN TEMP: 43; 6HR MAX TEMP: 48; Laguardia CLOUDY 43 33 68 NE14 30.41R 6HR MIN TEMP: 43; 6HR MAX TEMP: 48; J F K CLOUDY 43 36 76 NE13 30.41S 6HR MIN TEMP: 43; 6HR MAX TEMP: 46; Boston Logan CLOUDY 33 28 81 N6 30.45R WCI 28 6HR MIN TEMP: 33; 6HR MAX TEMP: 37; Ft. Lauderdale MOCLDY 71 66 84 E14 30.09F 6HR MIN TEMP: 69; 6HR MAX TEMP: 72; 6HR PCP: 0.19; Chicago O`Hare CLOUDY 47 44 90 NE8 29.92F FOG 6HR MIN TEMP: 43; 6HR MAX TEMP: 47; 6HR PCP: 0.07; Chicago Midway LGT RAIN 49 47 93 VRB7 29.92F FOG 6HR MIN TEMP: 45; 6HR MAX TEMP: 49; 6HR PCP: 0.03; Houston Bush CLEAR 60 54 80 S3 29.93F 6HR MIN TEMP: 60; 6HR MAX TEMP: 78; Houston Hobby MOCLDY 69 68 96 S6 29.94S 6HR MIN TEMP: 67; 6HR MAX TEMP: 80; Nashville LGT RAIN 58 56 93 SE3 29.99R 6HR MIN TEMP: 58; 6HR MAX TEMP: 64; 6HR PCP: 0.13; Atlanta RAIN 60 58 92 SW3 30.11F FOG 6HR MIN TEMP: 61; 6HR MAX TEMP: 71; 6HR PCP: 0.07; $$ GAZ044-118-TXZ119-213-NCZ071-DCZ001-MDZ014-506-PAZ021-071-NJZ106- NYZ176-178-MAZ106-OHZ011-021-055-MIZ076-KYZ091-ILZ014-INZ047- MNZ060-ONZ431-260700- ...Gateway Observations for Savannah International... CITY SKY/WX TMP DP RH WIND PRES REMARKS Savannah Arpt PTCLDY 63 55 75 SE8 30.18F 6HR MIN TEMP: 61; 6HR MAX TEMP: 68; Atlanta RAIN 60 58 92 SW3 30.11F FOG 6HR MIN TEMP: 61; 6HR MAX TEMP: 71; 6HR PCP: 0.07; Charlotte PTCLDY 60 52 74 S10 30.19F 6HR MIN TEMP: 60; 6HR MAX TEMP: 69; Dallas DFW CLEAR 58 47 66 SE5 29.89F 6HR MIN TEMP: 57; 6HR MAX TEMP: 73; Houston Bush CLEAR 60 54 80 S3 29.93F 6HR MIN TEMP: 60; 6HR MAX TEMP: 78; Wash National CLOUDY 55 46 71 E15 30.25R 6HR MIN TEMP: 55; 6HR MAX TEMP: 72; Wash Dulles CLOUDY 57 46 66 E14 30.20R 6HR MIN TEMP: 57; 6HR MAX TEMP: 70; Baltimore MOCLDY 48 43 82 NE14 30.28R 6HR MIN TEMP: 48; 6HR MAX TEMP: 70; Philadelphia CLOUDY 45 38 76 E15G22 30.35S 6HR MIN TEMP: 44; 6HR MAX TEMP: 50; Newark CLOUDY 43 33 68 NE7 30.41R 6HR MIN TEMP: 43; 6HR MAX TEMP: 48; Laguardia CLOUDY 43 33 68 NE14 30.41R 6HR MIN TEMP: 43; 6HR MAX TEMP: 48; J F K CLOUDY 43 36 76 NE13 30.41S 6HR MIN TEMP: 43; 6HR MAX TEMP: 46; Boston CLOUDY 33 28 81 N6 30.45R WCI 28 6HR MIN TEMP: 33; 6HR MAX TEMP: 37; Pittsburg MOCLDY 61 52 72 E7 30.11S 6HR MIN TEMP: 61; 6HR MAX TEMP: 67; Akron CLOUDY 57 48 72 E8 30.08F 6HR MIN TEMP: 55; 6HR MAX TEMP: 61; Cleveland CLOUDY 43 36 76 N5 30.10F 6HR MIN TEMP: 42; 6HR MAX TEMP: 44; Cincinnati LGT RAIN 60 56 86 S5 30.00F 6HR MIN TEMP: 59; 6HR MAX TEMP: 70; 6HR PCP: 0.04; Columbus CLOUDY 57 49 76 CALM 30.00F Detroit CLOUDY 40 36 86 E12 30.12F WCI 33 6HR MIN TEMP: 40; 6HR MAX TEMP: 44; Chicago O`Hare CLOUDY 47 44 90 NE8 29.92F FOG 6HR MIN TEMP: 43; 6HR MAX TEMP: 47; 6HR PCP: 0.07; Minneapolis LGT RAIN 38 35 89 E7 30.01F WCI 33 6HR MIN TEMP: 38; 6HR MAX TEMP: 42; 6HR PCP: 0.05; Indianapolis LGT RAIN 58 56 93 SE7 29.95F 6HR MIN TEMP: 58; 6HR MAX TEMP: 60; 6HR PCP: 0.21; Toronto Canada CLOUDY 34 28 80 E15G24 30.33F WCI 24 $$

USA.gov is the U.S. government's official web portal to all federal, state and local government web resources and services.